QPF
0.01 0.01 0.00 0.00 0.00 0.00 0.00 0.00 0.00 0.01 0.01 0.01 0.01 0.02 0.02 0.02 0.02 0.03 0.04 0.05 0.05 0.05 0.05 0.06 0.06 0.06 0.05 0.05 0.05 0.05 0.05 0.05 0.04 0.03 0.02 0.03 0.03 0.04 0.06 0.07 0.07 0.08 0.09
0.01 0.01 0.01 0.00 0.00 0.00 0.01 0.00 0.00 0.00 0.00 0.01 0.01 0.02 0.02 0.02 0.02 0.03 0.03 0.04 0.04 0.04 0.05 0.05 0.05 0.05 0.05 0.04 0.03 0.03 0.04 0.04 0.05 0.04 0.03 0.03 0.03 0.03 0.05 0.07 0.08 0.10 0.10
0.01 0.02 0.02 0.01 0.01 0.00 0.01 0.01 0.01 0.01 0.01 0.01 0.01 0.01 0.01 0.02 0.02 0.02 0.03 0.03 0.04 0.04 0.04 0.03 0.03 0.03 0.03 0.03 0.02 0.02 0.02 0.02 0.03 0.03 0.03 0.02 0.03 0.03 0.04 0.05 0.06 0.08 0.09
0.00 0.01 0.02 0.02 0.01 0.00 0.00 0.00 0.00 0.00 0.00 0.01 0.01 0.01 0.01 0.01 0.01 0.02 0.02 0.02 0.02 0.02 0.02 0.01 0.01 0.01 0.01 0.01 0.01 0.02 0.02 0.02 0.03 0.03 0.03 0.03 0.03 0.03 0.04 0.04 0.05 0.06 0.07
0.00 0.00 0.00 0.01 0.01 0.00 0.00 0.00 0.00 0.00 0.00 0.00 0.00 0.00 0.00 0.00 0.00 0.01 0.01 0.01 0.02 0.02 0.02 0.01 0.01 0.01 0.01 0.01 0.01 0.01 0.02 0.02 0.03 0.04 0.04 0.04 0.04 0.04 0.03 0.03 0.04 0.05 0.06
0.00 0.00 0.00 0.00 0.00 0.00 0.00 0.00 0.00 0.00 0.00 0.00 0.00 0.00 0.00 0.01 0.01 0.01 0.00 0.00 0.01 0.01 0.01 0.01 0.01 0.01 0.01 0.01 0.01 0.02 0.03 0.03 0.04 0.04 0.05 0.05 0.05 0.05 0.05 0.05 0.05 0.05 0.05
0.00 0.00 0.00 0.00 0.00 0.00 0.00 0.00 0.00 0.00 0.00 0.00 0.00 0.00 0.00 0.00 0.00 0.00 0.00 0.00 0.00 0.00 0.00 0.00 0.00 0.00 0.01 0.01 0.01 0.01 0.02 0.02 0.03 0.03 0.04 0.04 0.04 0.04 0.04 0.05 0.05 0.05 0.05
0.00 0.00 0.00 0.00 0.00 0.00 0.00 0.00 0.00 0.00 0.00 0.00 0.00 0.00 0.00 0.00 0.00 0.00 0.00 0.00 0.00 0.00 0.00 0.00 0.00 0.00 0.00 0.01 0.01 0.01 0.01 0.01 0.01 0.01 0.02 0.02 0.02 0.03 0.04 0.05 0.05 0.05 0.05
0.00 0.00 0.00 0.00 0.00 0.00 0.00 0.00 0.00 0.00 0.00 0.00 0.00 0.00 0.00 0.00 0.00 0.00 0.01 0.00 0.00 0.00 0.00 0.00 0.00 0.00 0.01 0.01 0.01 0.01 0.01 0.01 0.01 0.01 0.01 0.01 0.01 0.02 0.02 0.03 0.04 0.05 0.06
0.00 0.00 0.01 0.01 0.00 0.00 0.01 0.00 0.00 0.00 0.00 0.00 0.00 0.00 0.00 0.00 0.00 0.00 0.01 0.01 0.01 0.01 0.01 0.00 0.00 0.00 0.01 0.01 0.01 0.01 0.01 0.01 0.01 0.01 0.01 0.01 0.01 0.02 0.03 0.03 0.03 0.04 0.05
0.00 0.00 0.00 0.01 0.01 0.01 0.01 0.01 0.01 0.02 0.01 0.00 0.00 0.00 0.00 0.00 0.00 0.00 0.00 0.00 0.01 0.01 0.01 0.01 0.01 0.01 0.01 0.01 0.01 0.01 0.02 0.02 0.02 0.02 0.02 0.02 0.03 0.03 0.03 0.03 0.03 0.04 0.05
0.00 0.00 0.00 0.00 0.00 0.00 0.01 0.01 0.01 0.02 0.02 0.01 0.01 0.00 0.00 0.00 0.00 0.00 0.00 0.00 0.01 0.01 0.01 0.01 0.01 0.01 0.01 0.01 0.01 0.01 0.01 0.01 0.01 0.01 0.01 0.01 0.01 0.01 0.01 0.02 0.02 0.02 0.03
0.00 0.00 0.00 0.00 0.00 0.00 0.00 0.00 0.00 0.01 0.01 0.01 0.01 0.00 0.00 0.00 0.00 0.00 0.01 0.01 0.01 0.01 0.01 0.01 0.01 0.01 0.01 0.01 0.01 0.01 0.01 0.01 0.01 0.01 0.01 0.00 0.00 0.00 0.00 0.00 0.00 0.01 0.02
0.00 0.00 0.00 0.00 0.00 0.00 0.00 0.00 0.00 0.00 0.00 0.00 0.00 0.00 0.00 0.00 0.00 0.00 0.00 0.00 0.00 0.00 0.00 0.00 0.00 0.00 0.00 0.00 0.00 0.00 0.01 0.01 0.01 0.01 0.01 0.00 0.00 0.00 0.00 0.00 0.00 0.00 0.01
0.00 0.00 0.00 0.00 0.00 0.00 0.00 0.00 0.00 0.00 0.00 0.00 0.00 0.00 0.00 0.00 0.00 0.00 0.00 0.00 0.00 0.00 0.00 0.00 0.00 0.00 0.00 0.00 0.00 0.00 0.01 0.01 0.01 0.01 0.01 0.01 0.00 0.00 0.00 0.00 0.00 0.00 0.01
0.00 0.00 0.00 0.00 0.00 0.00 0.00 0.00 0.00 0.00 0.00 0.00 0.00 0.00 0.00 0.00 0.00 0.00 0.00 0.00 0.00 0.00 0.00 0.00 0.00 0.00 0.00 0.00 0.00 0.00 0.00 0.01 0.01 0.01 0.01 0.01 0.01 0.01 0.01 0.00 0.00 0.01 0.01
0.00 0.00 0.00 0.00 0.00 0.00 0.00 0.00 0.00 0.00 0.00 0.00 0.00 0.00 0.00 0.00 0.00 0.00 0.00 0.00 0.00 0.00 0.00 0.00 0.00 0.00 0.00 0.01 0.01 0.01 0.01 0.01 0.01 0.01 0.01 0.01 0.01 0.01 0.01 0.01 0.01 0.01 0.01
0.00 0.00 0.00 0.00 0.00 0.00 0.00 0.00 0.00 0.00 0.00 0.00 0.00 0.00 0.00 0.00 0.00 0.00 0.00 0.00 0.00 0.00 0.00 0.00 0.00 0.01 0.01 0.01 0.01 0.01 0.01 0.01 0.01 0.01 0.01 0.02 0.02 0.02 0.02 0.01 0.01 0.01 0.01
0.00 0.00 0.00 0.00 0.00 0.00 0.00 0.00 0.00 0.00 0.00 0.00 0.00 0.00 0.00 0.00 0.00 0.00 0.00 0.00 0.00 0.00 0.00 0.00 0.00 0.01 0.01 0.01 0.01 0.01 0.01 0.01 0.01 0.02 0.02 0.02 0.02 0.03 0.03 0.02 0.02 0.01 0.02
0.00 0.00 0.00 0.00 0.00 0.00 0.00 0.00 0.00 0.00 0.00 0.00 0.00 0.00 0.00 0.00 0.00 0.00 0.00 0.00 0.00 0.00 0.00 0.00 0.00 0.00 0.01 0.01 0.01 0.01 0.01 0.01 0.01 0.02 0.02 0.02 0.02 0.03 0.04 0.04 0.03 0.03 0.02
0.00 0.00 0.00 0.00 0.00 0.00 0.00 0.00 0.00 0.00 0.00 0.00 0.00 0.00 0.00 0.00 0.00 0.00 0.00 0.00 0.00 0.00 0.00 0.01 0.01 0.01 0.01 0.01 0.01 0.01 0.01 0.01 0.01 0.01 0.02 0.02 0.03 0.04 0.04 0.05 0.05 0.04 0.03
0.00 0.00 0.00 0.00 0.00 0.00 0.00 0.00 0.00 0.00 0.00 0.00 0.00 0.00 0.00 0.00 0.00 0.00 0.00 0.00 0.00 0.00 0.00 0.01 0.01 0.01 0.01 0.01 0.01 0.01 0.01 0.01 0.01 0.01 0.02 0.02 0.03 0.03 0.04 0.05 0.06 0.06 0.05
0.00 0.00 0.00 0.00 0.00 0.00 0.00 0.00 0.00 0.00 0.00 0.00 0.00 0.00 0.00 0.00 0.00 0.00 0.00 0.00 0.00 0.00 0.00 0.00 0.01 0.01 0.01 0.01 0.01 0.02 0.02 0.02 0.02 0.02 0.03 0.03 0.03 0.03 0.04 0.04 0.05 0.06 0.06
0.00 0.00 0.00 0.00 0.00 0.00 0.01 0.01 0.01 0.01 0.00 0.00 0.00 0.00 0.00 0.00 0.00 0.00 0.00 0.00 0.00 0.00 0.00 0.00 0.00 0.01 0.01 0.01 0.01 0.01 0.02 0.02 0.03 0.03 0.04 0.04 0.03 0.03 0.03 0.03 0.04 0.04 0.05
0.00 0.00 0.00 0.00 0.01 0.01 0.01 0.01 0.01 0.00 0.00 0.00 0.00 0.00 0.00 0.00 0.00 0.00 0.00 0.00 0.00 0.00 0.00 0.00 0.00 0.00 0.00 0.00 0.01 0.01 0.01 0.02 0.03 0.04 0.04 0.04 0.03 0.03 0.03 0.03 0.03 0.04 0.04
0.00 0.00 0.01 0.01 0.01 0.00 0.00 0.00 0.00 0.00 0.00 0.00 0.00 0.00 0.00 0.00 0.00 0.00 0.00 0.00 0.00 0.00 0.00 0.00 0.00 0.00 0.00 0.00 0.01 0.01 0.01 0.01 0.02 0.02 0.03 0.04 0.03 0.02 0.02 0.03 0.03 0.03 0.03
MSLP
1021.38 1021.51 1021.59 1021.59 1021.49 1021.27 1020.94 1020.52 1020.04 1019.54 1019.03 1018.54 1018.07 1017.62 1017.18 1016.74 1016.31 1015.87 1015.43 1014.99 1014.57 1014.16 1013.76 1013.37 1012.99 1012.61 1012.23 1011.87 1011.55 1011.27 1011.07 1010.97 1010.95 1011.03 1011.18 1011.37 1011.55 1011.69 1011.76 1011.73 1011.60 1011.38 1011.08
1021.23 1021.39 1021.51 1021.53 1021.45 1021.26 1020.96 1020.59 1020.15 1019.70 1019.25 1018.81 1018.40 1018.01 1017.64 1017.27 1016.91 1016.54 1016.18 1015.82 1015.46 1015.12 1014.79 1014.46 1014.13 1013.80 1013.47 1013.14 1012.84 1012.57 1012.37 1012.24 1012.19 1012.20 1012.28 1012.38 1012.48 1012.53 1012.52 1012.42 1012.23 1011.96 1011.63
1020.95 1021.16 1021.30 1021.35 1021.30 1021.14 1020.89 1020.56 1020.18 1019.79 1019.39 1019.02 1018.67 1018.34 1018.03 1017.72 1017.41 1017.11 1016.81 1016.52 1016.23 1015.95 1015.68 1015.41 1015.14 1014.86 1014.58 1014.29 1014.01 1013.76 1013.55 1013.39 1013.30 1013.26 1013.27 1013.29 1013.31 1013.28 1013.19 1013.03 1012.79 1012.48 1012.11
1020.56 1020.81 1020.99 1021.08 1021.07 1020.95 1020.75 1020.47 1020.16 1019.83 1019.50 1019.18 1018.89 1018.60 1018.34 1018.07 1017.81 1017.55 1017.29 1017.05 1016.82 1016.59 1016.38 1016.17 1015.95 1015.72 1015.47 1015.21 1014.95 1014.71 1014.49 1014.31 1014.18 1014.09 1014.04 1014.00 1013.95 1013.87 1013.73 1013.52 1013.24 1012.90 1012.51
1020.06 1020.37 1020.60 1020.74 1020.78 1020.72 1020.58 1020.37 1020.13 1019.86 1019.59 1019.33 1019.07 1018.82 1018.58 1018.33 1018.09 1017.85 1017.63 1017.41 1017.22 1017.04 1016.87 1016.70 1016.52 1016.32 1016.11 1015.87 1015.62 1015.36 1015.13 1014.93 1014.77 1014.64 1014.55 1014.47 1014.38 1014.26 1014.10 1013.87 1013.58 1013.23 1012.83
1019.49 1019.87 1020.16 1020.37 1020.47 1020.48 1020.41 1020.28 1020.11 1019.90 1019.69 1019.46 1019.23 1019.00 1018.76 1018.52 1018.28 1018.05 1017.83 1017.63 1017.46 1017.30 1017.16 1017.02 1016.87 1016.69 1016.49 1016.25 1015.99 1015.73 1015.48 1015.25 1015.06 1014.91 1014.79 1014.69 1014.59 1014.47 1014.31 1014.08 1013.80 1013.46 1013.07
1018.89 1019.33 1019.70 1019.98 1020.16 1020.25 1020.26 1020.20 1020.10 1019.96 1019.79 1019.60 1019.39 1019.16 1018.91 1018.66 1018.40 1018.15 1017.93 1017.74 1017.57 1017.43 1017.31 1017.19 1017.04 1016.87 1016.67 1016.42 1016.15 1015.86 1015.58 1015.33 1015.11 1014.94 1014.81 1014.71 1014.62 1014.52 1014.38 1014.19 1013.93 1013.61 1013.22
1018.29 1018.79 1019.23 1019.58 1019.84 1020.01 1020.10 1020.12 1020.09 1020.01 1019.89 1019.72 1019.52 1019.28 1019.02 1018.75 1018.47 1018.21 1017.97 1017.77 1017.61 1017.48 1017.36 1017.24 1017.11 1016.93 1016.71 1016.45 1016.15 1015.84 1015.53 1015.25 1015.02 1014.83 1014.70 1014.61 1014.54 1014.46 1014.35 1014.19 1013.96 1013.67 1013.30
1017.70 1018.25 1018.74 1019.15 1019.49 1019.74 1019.91 1020.01 1020.05 1020.03 1019.95 1019.81 1019.61 1019.37 1019.09 1018.79 1018.49 1018.21 1017.96 1017.76 1017.59 1017.47 1017.35 1017.24 1017.10 1016.92 1016.69 1016.41 1016.09 1015.75 1015.42 1015.12 1014.87 1014.67 1014.54 1014.45 1014.39 1014.33 1014.25 1014.11 1013.91 1013.64 1013.28
1017.14 1017.71 1018.24 1018.70 1019.09 1019.41 1019.66 1019.83 1019.94 1019.97 1019.93 1019.82 1019.63 1019.38 1019.09 1018.77 1018.46 1018.16 1017.91 1017.70 1017.54 1017.42 1017.31 1017.21 1017.07 1016.89 1016.66 1016.37 1016.04 1015.69 1015.34 1015.03 1014.76 1014.55 1014.40 1014.31 1014.25 1014.19 1014.11 1013.98 1013.79 1013.51 1013.15
1016.59 1017.16 1017.71 1018.20 1018.64 1019.01 1019.32 1019.56 1019.73 1019.81 1019.81 1019.72 1019.55 1019.30 1019.01 1018.69 1018.36 1018.06 1017.80 1017.60 1017.44 1017.33 1017.24 1017.15 1017.02 1016.86 1016.63 1016.35 1016.03 1015.68 1015.33 1015.00 1014.72 1014.50 1014.34 1014.22 1014.13 1014.05 1013.94 1013.79 1013.58 1013.28 1012.91
1016.06 1016.61 1017.15 1017.65 1018.12 1018.54 1018.90 1019.19 1019.41 1019.54 1019.57 1019.51 1019.36 1019.12 1018.83 1018.51 1018.19 1017.89 1017.64 1017.44 1017.30 1017.20 1017.12 1017.05 1016.95 1016.81 1016.61 1016.36 1016.05 1015.72 1015.39 1015.07 1014.78 1014.54 1014.34 1014.19 1014.05 1013.91 1013.75 1013.55 1013.29 1012.95 1012.55
1015.55 1016.06 1016.58 1017.08 1017.56 1018.01 1018.41 1018.74 1019.00 1019.17 1019.24 1019.20 1019.07 1018.85 1018.57 1018.26 1017.95 1017.66 1017.41 1017.23 1017.10 1017.02 1016.97 1016.92 1016.85 1016.74 1016.58 1016.37 1016.10 1015.81 1015.49 1015.18 1014.89 1014.63 1014.40 1014.19 1013.99 1013.77 1013.54 1013.26 1012.92 1012.53 1012.08
1015.07 1015.54 1016.03 1016.52 1017.01 1017.47 1017.89 1018.25 1018.54 1018.74 1018.83 1018.82 1018.71 1018.51 1018.25 1017.95 1017.66 1017.38 1017.15 1016.98 1016.87 1016.80 1016.77 1016.75 1016.71 1016.64 1016.53 1016.36 1016.14 1015.88 1015.60 1015.31 1015.02 1014.74 1014.46 1014.19 1013.91 1013.61 1013.28 1012.91 1012.50 1012.04 1011.54
1014.64 1015.07 1015.53 1016.01 1016.49 1016.96 1017.39 1017.77 1018.07 1018.28 1018.39 1018.40 1018.31 1018.13 1017.89 1017.62 1017.34 1017.08 1016.87 1016.71 1016.62 1016.57 1016.55 1016.55 1016.54 1016.51 1016.43 1016.31 1016.13 1015.92 1015.67 1015.40 1015.10 1014.80 1014.48 1014.14 1013.78 1013.39 1012.96 1012.50 1012.00 1011.48 1010.92
1014.29 1014.69 1015.13 1015.59 1016.07 1016.53 1016.96 1017.34 1017.64 1017.86 1017.97 1017.99 1017.91 1017.75 1017.53 1017.29 1017.04 1016.81 1016.62 1016.48 1016.39 1016.35 1016.35 1016.36 1016.36 1016.35 1016.30 1016.21 1016.07 1015.88 1015.65 1015.39 1015.09 1014.76 1014.39 1013.99 1013.55 1013.08 1012.57 1012.02 1011.45 1010.86 1010.26
1014.03 1014.41 1014.84 1015.29 1015.76 1016.21 1016.63 1016.99 1017.28 1017.48 1017.59 1017.61 1017.54 1017.40 1017.21 1016.99 1016.78 1016.58 1016.41 1016.29 1016.22 1016.19 1016.18 1016.19 1016.20 1016.19 1016.15 1016.06 1015.93 1015.75 1015.53 1015.26 1014.94 1014.58 1014.17 1013.71 1013.21 1012.66 1012.07 1011.46 1010.83 1010.19 1009.55
1013.85 1014.23 1014.66 1015.11 1015.56 1015.99 1016.39 1016.72 1016.99 1017.17 1017.26 1017.27 1017.21 1017.09 1016.93 1016.75 1016.57 1016.41 1016.27 1016.18 1016.12 1016.09 1016.08 1016.07 1016.06 1016.03 1015.97 1015.87 1015.72 1015.52 1015.27 1014.98 1014.63 1014.23 1013.77 1013.26 1012.70 1012.10 1011.46 1010.80 1010.13 1009.45 1008.79
1013.75 1014.13 1014.56 1015.01 1015.45 1015.85 1016.22 1016.51 1016.74 1016.89 1016.96 1016.97 1016.91 1016.81 1016.68 1016.55 1016.41 1016.29 1016.20 1016.13 1016.08 1016.06 1016.03 1016.00 1015.96 1015.89 1015.78 1015.63 1015.43 1015.19 1014.89 1014.55 1014.15 1013.70 1013.19 1012.63 1012.03 1011.39 1010.71 1010.03 1009.33 1008.64 1007.96
1013.68 1014.08 1014.51 1014.95 1015.37 1015.74 1016.07 1016.32 1016.51 1016.63 1016.68 1016.68 1016.63 1016.55 1016.47 1016.37 1016.29 1016.22 1016.17 1016.13 1016.10 1016.07 1016.02 1015.96 1015.86 1015.73 1015.55 1015.33 1015.06 1014.75 1014.38 1013.97 1013.51 1012.99 1012.44 1011.83 1011.19 1010.52 1009.83 1009.13 1008.44 1007.75 1007.08
1013.60 1014.01 1014.45 1014.87 1015.27 1015.61 1015.90 1016.11 1016.26 1016.35 1016.38 1016.38 1016.35 1016.30 1016.25 1016.21 1016.18 1016.16 1016.15 1016.14 1016.12 1016.08 1016.01 1015.90 1015.74 1015.54 1015.28 1014.97 1014.61 1014.20 1013.75 1013.25 1012.71 1012.14 1011.52 1010.88 1010.21 1009.53 1008.83 1008.14 1007.46 1006.80 1006.15
1013.46 1013.88 1014.31 1014.73 1015.10 1015.41 1015.66 1015.85 1015.97 1016.03 1016.06 1016.06 1016.05 1016.03 1016.03 1016.04 1016.06 1016.09 1016.12 1016.13 1016.11 1016.06 1015.95 1015.79 1015.56 1015.28 1014.93 1014.52 1014.05 1013.55 1013.00 1012.41 1011.80 1011.16 1010.50 1009.82 1009.13 1008.45 1007.76 1007.09 1006.44 1005.82 1005.21
1013.22 1013.64 1014.07 1014.47 1014.82 1015.11 1015.34 1015.51 1015.61 1015.67 1015.71 1015.72 1015.74 1015.76 1015.80 1015.86 1015.92 1015.98 1016.03 1016.06 1016.03 1015.96 1015.81 1015.59 1015.29 1014.92 1014.48 1013.97 1013.41 1012.81 1012.16 1011.50 1010.81 1010.11 1009.41 1008.71 1008.02 1007.34 1006.68 1006.05 1005.44 1004.87 1004.31
1012.84 1013.27 1013.69 1014.08 1014.42 1014.71 1014.93 1015.09 1015.20 1015.28 1015.33 1015.38 1015.43 1015.49 1015.56 1015.65 1015.75 1015.83 1015.89 1015.91 1015.87 1015.76 1015.57 1015.29 1014.92 1014.47 1013.95 1013.35 1012.70 1012.01 1011.29 1010.55 1009.81 1009.07 1008.34 1007.63 1006.95 1006.29 1005.67 1005.09 1004.54 1004.02 1003.53
1012.32 1012.74 1013.16 1013.55 1013.90 1014.20 1014.44 1014.62 1014.76 1014.87 1014.95 1015.04 1015.13 1015.22 1015.33 1015.44 1015.55 1015.64 1015.69 1015.69 1015.62 1015.46 1015.22 1014.88 1014.46 1013.94 1013.34 1012.68 1011.96 1011.21 1010.43 1009.65 1008.87 1008.10 1007.36 1006.66 1006.00 1005.38 1004.81 1004.28 1003.80 1003.35 1002.93
1011.66 1012.09 1012.51 1012.92 1013.29 1013.61 1013.89 1014.11 1014.30 1014.46 1014.59 1014.72 1014.85 1014.97 1015.10 1015.22 1015.32 1015.39 1015.42 1015.39 1015.28 1015.08 1014.79 1014.40 1013.92 1013.35 1012.70 1011.99 1011.23 1010.44 1009.64 1008.83 1008.04 1007.27 1006.55 1005.87 1005.24 1004.67 1004.15 1003.69 1003.28 1002.91 1002.57
Thickness
5519 5518 5519 5519 5519 5519 5519 5518 5518 5518 5518 5519 5520 5520 5521 5521 5521 5521 5521 5521 5521 5521 5520 5520 5520 5520 5521 5522 5523 5524 5525 5526 5530 5534 5533 5533 5534 5535 5537 5539 5542 5545 5548
5513 5513 5512 5512 5512 5511 5511 5510 5510 5510 5510 5510 5510 5510 5510 5510 5510 5509 5509 5508 5508 5507 5507 5507 5507 5507 5507 5507 5508 5509 5510 5511 5513 5517 5518 5518 5519 5519 5521 5523 5526 5529 5533
5508 5507 5506 5505 5504 5503 5503 5503 5502 5501 5501 5501 5501 5500 5500 5499 5499 5498 5497 5496 5495 5494 5493 5493 5493 5494 5494 5493 5494 5495 5495 5497 5497 5500 5502 5502 5503 5504 5505 5508 5510 5513 5517
5503 5502 5500 5499 5497 5496 5496 5495 5494 5493 5492 5491 5490 5490 5490 5489 5488 5487 5486 5485 5484 5482 5481 5481 5481 5481 5481 5481 5481 5480 5481 5481 5482 5484 5485 5485 5486 5487 5488 5490 5494 5497 5500
5499 5497 5495 5493 5491 5490 5488 5487 5486 5485 5483 5482 5481 5481 5480 5480 5479 5477 5476 5475 5473 5471 5470 5469 5469 5469 5469 5469 5468 5467 5467 5467 5467 5468 5469 5469 5470 5470 5471 5473 5476 5480 5485
5495 5493 5490 5488 5485 5483 5481 5480 5478 5476 5475 5473 5472 5471 5470 5470 5470 5468 5466 5463 5461 5460 5458 5457 5456 5456 5455 5455 5455 5454 5454 5453 5453 5453 5452 5452 5453 5453 5454 5455 5458 5462 5468
5491 5488 5485 5482 5479 5477 5475 5472 5470 5468 5466 5464 5462 5461 5460 5459 5459 5458 5456 5452 5450 5448 5446 5445 5445 5443 5442 5441 5441 5440 5439 5439 5438 5437 5437 5436 5436 5437 5437 5439 5441 5443 5449
5486 5483 5480 5477 5474 5471 5468 5465 5462 5459 5457 5455 5452 5450 5449 5448 5448 5447 5444 5440 5438 5436 5434 5433 5432 5431 5430 5429 5428 5426 5425 5423 5423 5422 5421 5421 5420 5420 5420 5422 5424 5428 5432
5482 5479 5476 5472 5468 5465 5461 5457 5454 5451 5448 5445 5443 5440 5438 5437 5437 5436 5433 5429 5426 5424 5422 5421 5420 5419 5419 5418 5415 5413 5411 5409 5408 5407 5406 5405 5405 5405 5405 5406 5407 5410 5416
5480 5476 5472 5467 5463 5459 5455 5451 5447 5443 5439 5437 5434 5430 5428 5426 5426 5425 5423 5418 5415 5413 5411 5409 5407 5407 5406 5405 5402 5399 5397 5395 5393 5392 5390 5389 5388 5388 5388 5388 5388 5390 5394
5477 5472 5466 5462 5458 5453 5449 5444 5440 5435 5431 5427 5424 5421 5418 5416 5415 5414 5411 5407 5404 5401 5399 5396 5394 5393 5392 5391 5388 5385 5383 5382 5379 5376 5374 5374 5373 5372 5371 5371 5370 5370 5373
5471 5466 5461 5456 5451 5447 5442 5437 5432 5427 5422 5417 5414 5411 5408 5405 5404 5402 5400 5397 5394 5390 5386 5383 5381 5380 5378 5376 5373 5372 5370 5367 5363 5361 5360 5358 5357 5356 5355 5355 5355 5355 5356
5464 5459 5454 5449 5444 5440 5435 5430 5424 5419 5414 5409 5405 5402 5399 5396 5393 5391 5388 5386 5382 5378 5374 5372 5369 5366 5364 5360 5359 5357 5354 5350 5348 5347 5345 5343 5341 5340 5340 5341 5342 5342 5344
5457 5452 5446 5441 5436 5431 5427 5423 5417 5411 5406 5402 5397 5394 5390 5386 5383 5380 5377 5373 5370 5366 5362 5359 5356 5352 5349 5346 5344 5341 5338 5335 5333 5330 5329 5328 5327 5326 5326 5327 5327 5328 5330
5450 5445 5439 5434 5429 5423 5419 5414 5410 5405 5400 5395 5391 5386 5381 5377 5374 5371 5367 5363 5358 5355 5351 5346 5342 5338 5335 5331 5328 5325 5322 5320 5317 5315 5314 5313 5313 5312 5312 5312 5312 5312 5312
5443 5437 5432 5426 5420 5415 5410 5405 5403 5398 5394 5390 5384 5379 5374 5369 5365 5361 5356 5352 5348 5344 5338 5332 5328 5324 5320 5317 5314 5311 5308 5306 5303 5301 5299 5298 5297 5297 5297 5297 5297 5297 5298
5437 5431 5425 5419 5414 5408 5403 5398 5393 5389 5385 5380 5375 5370 5364 5359 5355 5350 5346 5341 5336 5331 5324 5319 5314 5310 5306 5303 5300 5297 5294 5292 5289 5287 5285 5284 5283 5283 5283 5284 5284 5285 5287
5429 5424 5419 5412 5407 5402 5396 5391 5385 5380 5374 5368 5364 5360 5355 5350 5344 5340 5335 5329 5323 5318 5312 5307 5302 5298 5294 5290 5287 5284 5282 5280 5278 5276 5274 5272 5271 5271 5272 5273 5274 5275 5277
5421 5415 5410 5405 5399 5394 5389 5383 5377 5372 5366 5359 5353 5349 5345 5340 5334 5329 5324 5317 5311 5306 5301 5296 5291 5286 5283 5279 5276 5273 5271 5269 5268 5265 5264 5263 5262 5261 5262 5263 5265 5268 5270
5413 5409 5403 5397 5391 5386 5380 5374 5368 5362 5356 5350 5344 5339 5334 5329 5323 5318 5313 5307 5301 5296 5291 5286 5282 5277 5273 5270 5266 5264 5262 5261 5260 5258 5257 5255 5255 5254 5255 5257 5259 5261 5264
5404 5400 5396 5389 5383 5378 5372 5366 5360 5353 5347 5341 5336 5331 5327 5320 5314 5308 5303 5298 5293 5288 5283 5278 5274 5269 5266 5262 5259 5257 5255 5254 5253 5252 5251 5250 5249 5250 5251 5252 5254 5256 5258
5396 5391 5386 5380 5375 5369 5363 5357 5351 5345 5339 5333 5328 5323 5319 5312 5306 5301 5296 5291 5286 5281 5276 5271 5267 5263 5259 5256 5254 5252 5250 5249 5248 5247 5246 5246 5246 5246 5247 5249 5250 5252 5255
5388 5382 5377 5371 5366 5362 5356 5349 5342 5336 5331 5325 5320 5315 5310 5304 5299 5294 5289 5284 5279 5274 5269 5265 5261 5258 5255 5253 5250 5248 5246 5245 5244 5243 5243 5243 5244 5244 5245 5246 5247 5249 5252
5379 5374 5368 5362 5357 5352 5346 5340 5334 5329 5323 5318 5313 5308 5302 5297 5292 5287 5282 5277 5272 5268 5264 5260 5256 5254 5251 5249 5247 5245 5244 5242 5242 5241 5241 5241 5242 5242 5243 5244 5246 5248 5250
5370 5365 5360 5354 5349 5343 5338 5332 5326 5321 5316 5311 5306 5301 5295 5290 5285 5280 5275 5270 5266 5262 5259 5255 5253 5250 5248 5246 5244 5243 5242 5241 5241 5241 5241 5241 5241 5241 5242 5243 5245 5247 5248
5361 5357 5351 5346 5340 5335 5330 5324 5319 5313 5308 5303 5298 5293 5288 5282 5278 5273 5269 5264 5260 5257 5254 5252 5249 5246 5244 5243 5242 5241 5240 5240 5240 5240 5240 5240 5240 5240 5241 5242 5243 5245 5247